Location: Newark
(49.3000°N, 9.4667°E)
Time: 12:20:35
(UTC+00:00)

Envisat - Visible Passes

Search period start: 21 April 2019 00:00
Search period end: 01 May 2019 00:00
Orbit: 764 x 766 km, 98.2° (Epoch: 21 April)

Date Brightness Start Highest point End Pass type
(mag) Time Alt. Az. Time Alt. Az. Time Alt. Az.
22 Apr 6.1 19:33:21 10° WSW 19:35:13 12° W 19:37:07 10° WNW visible
25 Apr 5.9 19:20:59 10° WSW 19:23:50 15° W 19:26:42 10° NW visible
28 Apr 5.7 19:08:59 10° SW 19:12:28 18° W 19:15:58 10° NW visible
30 Apr 6.2 19:37:07 10° W 19:38:22 11° W 19:39:38 10° WNW visible
